Total_Precipitation_Accumulation
0.00 0.00 0.02 0.01 0.01 0.02 0.04 0.03 0.03 0.04 0.05 0.07 0.06 0.06 0.09 0.10 0.07 0.03 0.01 0.01 0.02 0.03 0.05 0.04 0.05 0.05 0.05 0.05 0.04 0.02 0.01 0.01 0.01 0.01 0.02 0.03 0.03 0.04 0.04 0.02 0.06 0.06 0.03
0.00 0.00 0.03 0.01 0.01 0.01 0.04 0.04 0.04 0.04 0.03 0.03 0.05 0.09 0.13 0.12 0.10 0.04 0.02 0.01 0.01 0.01 0.03 0.03 0.04 0.04 0.04 0.04 0.04 0.02 0.01 0.00 0.01 0.01 0.01 0.02 0.03 0.07 0.06 0.03 0.06 0.04 0.01
0.00 0.00 0.01 0.01 0.01 0.01 0.01 0.03 0.06 0.07 0.04 0.02 0.06 0.10 0.12 0.11 0.10 0.08 0.07 0.03 0.01 0.01 0.01 0.01 0.02 0.03 0.02 0.02 0.02 0.01 0.01 0.00 0.01 0.01 0.04 0.08 0.03 0.05 0.06 0.03 0.01 0.01 0.02
0.00 0.00 0.00 0.01 0.01 0.01 0.01 0.02 0.06 0.07 0.04 0.04 0.11 0.12 0.08 0.10 0.11 0.09 0.09 0.05 0.03 0.01 0.01 0.01 0.01 0.03 0.02 0.01 0.01 0.00 0.00 0.00 0.01 0.02 0.07 0.17 0.09 0.04 0.06 0.06 0.04 0.02 0.03
0.00 0.00 0.00 0.01 0.01 0.01 0.01 0.02 0.04 0.05 0.04 0.05 0.09 0.10 0.07 0.10 0.11 0.10 0.08 0.08 0.09 0.04 0.01 0.02 0.03 0.03 0.02 0.01 0.01 0.01 0.01 0.00 0.01 0.02 0.04 0.13 0.18 0.11 0.10 0.15 0.14 0.11 0.09
0.00 0.00 0.00 0.01 0.01 0.01 0.01 0.02 0.03 0.04 0.04 0.03 0.04 0.07 0.06 0.11 0.16 0.14 0.10 0.12 0.14 0.12 0.05 0.02 0.03 0.03 0.02 0.01 0.01 0.01 0.01 0.01 0.01 0.03 0.03 0.08 0.24 0.23 0.18 0.33 0.42 0.37 0.28
0.00 0.00 0.00 0.01 0.01 0.01 0.01 0.01 0.02 0.03 0.03 0.01 0.01 0.02 0.02 0.07 0.11 0.12 0.10 0.11 0.11 0.10 0.09 0.07 0.04 0.04 0.04 0.04 0.03 0.03 0.04 0.05 0.04 0.03 0.03 0.07 0.21 0.18 0.22 0.48 0.72 0.65 0.50
0.00 0.00 0.01 0.01 0.01 0.01 0.01 0.01 0.01 0.02 0.02 0.01 0.01 0.01 0.01 0.03 0.06 0.07 0.08 0.07 0.06 0.05 0.06 0.07 0.08 0.08 0.06 0.05 0.05 0.05 0.05 0.05 0.05 0.05 0.05 0.08 0.13 0.13 0.31 0.56 0.75 0.74 0.64
0.00 0.00 0.01 0.01 0.01 0.01 0.01 0.01 0.01 0.01 0.01 0.01 0.01 0.01 0.01 0.02 0.03 0.04 0.07 0.07 0.06 0.06 0.07 0.08 0.08 0.07 0.08 0.07 0.06 0.05 0.05 0.05 0.05 0.09 0.10 0.19 0.25 0.27 0.51 0.65 0.71 0.74 0.71
0.00 0.00 0.00 0.01 0.01 0.01 0.01 0.01 0.01 0.01 0.01 0.01 0.01 0.02 0.02 0.02 0.02 0.03 0.06 0.06 0.07 0.08 0.08 0.10 0.11 0.12 0.12 0.11 0.12 0.13 0.11 0.07 0.03 0.04 0.16 0.22 0.28 0.46 0.69 0.79 0.85 0.86 0.87
0.00 0.01 0.00 0.01 0.01 0.01 0.01 0.01 0.01 0.01 0.01 0.01 0.02 0.02 0.02 0.02 0.05 0.10 0.08 0.11 0.13 0.16 0.17 0.16 0.17 0.18 0.18 0.16 0.22 0.31 0.24 0.17 0.11 0.09 0.13 0.20 0.27 0.50 0.77 0.87 0.96 1.03 1.05
0.00 0.00 0.01 0.01 0.01 0.01 0.01 0.01 0.01 0.01 0.02 0.02 0.04 0.07 0.09 0.12 0.12 0.08 0.12 0.19 0.26 0.40 0.44 0.47 0.49 0.40 0.34 0.30 0.63 0.83 0.30 0.29 0.30 0.23 0.21 0.23 0.36 0.65 0.87 0.86 0.91 1.03 1.04
0.00 0.00 0.00 0.01 0.01 0.01 0.01 0.01 0.02 0.02 0.05 0.04 0.03 0.07 0.12 0.14 0.12 0.10 0.14 0.24 0.35 0.46 0.54 0.83 0.99 0.73 0.71 0.74 0.79 0.74 0.34 0.29 0.32 0.33 0.39 0.43 0.52 0.83 1.08 0.92 0.83 0.91 1.01
0.00 0.00 0.01 0.01 0.02 0.03 0.02 0.02 0.02 0.03 0.04 0.04 0.07 0.09 0.15 0.18 0.16 0.19 0.28 0.34 0.41 0.46 0.65 0.80 1.03 0.87 0.77 0.73 0.74 0.67 0.60 0.57 0.47 0.57 0.67 0.49 0.53 0.78 1.05 1.00 0.86 0.81 0.89
0.02 0.02 0.03 0.03 0.03 0.04 0.04 0.05 0.04 0.06 0.08 0.09 0.12 0.16 0.19 0.23 0.27 0.33 0.36 0.46 0.45 0.48 0.64 0.82 0.87 0.98 1.07 1.11 0.94 0.83 0.83 0.79 0.71 0.86 0.85 0.64 0.55 0.64 0.85 1.01 0.98 0.89 0.83
0.08 0.07 0.09 0.10 0.10 0.10 0.10 0.11 0.13 0.16 0.18 0.20 0.23 0.27 0.30 0.39 0.49 0.57 0.59 0.68 0.62 0.68 0.82 1.01 1.09 1.34 1.25 1.16 0.93 0.89 0.85 0.83 0.73 0.72 0.73 0.68 0.52 0.53 0.64 0.82 0.96 0.96 0.89
0.19 0.23 0.28 0.34 0.36 0.39 0.41 0.41 0.40 0.44 0.49 0.49 0.51 0.53 0.55 0.64 0.83 0.99 0.95 0.90 0.96 1.01 1.11 1.25 1.30 1.33 1.13 1.04 0.96 0.98 0.90 0.79 0.65 0.63 0.61 0.57 0.50 0.43 0.49 0.63 0.80 0.89 0.87
0.42 0.54 0.64 0.74 0.82 0.90 0.96 0.98 0.94 0.94 0.90 0.82 0.81 0.87 0.96 1.02 1.16 1.39 1.28 1.19 1.38 1.29 1.39 1.59 1.55 1.46 1.30 1.20 1.06 0.93 0.84 0.71 0.52 0.51 0.48 0.50 0.54 0.40 0.42 0.58 0.66 0.67 0.80
0.81 1.00 1.06 1.16 1.35 1.52 1.57 1.51 1.51 1.52 1.42 1.25 1.21 1.22 1.16 1.19 1.34 1.58 1.43 1.43 1.49 1.61 1.62 1.44 1.70 1.63 1.45 1.38 1.14 0.92 0.70 0.57 0.47 0.43 0.39 0.33 0.38 0.37 0.32 0.38 0.46 0.54 0.74
1.42 1.63 1.78 1.93 1.97 1.83 1.74 1.83 1.89 1.76 1.70 1.61 1.59 1.56 1.47 1.49 1.57 1.80 1.61 1.49 1.60 1.73 1.65 1.58 1.67 1.66 1.47 1.43 1.09 0.76 0.63 0.47 0.41 0.40 0.36 0.32 0.28 0.26 0.28 0.36 0.53 0.53 0.56
1.97 2.18 2.38 2.58 2.70 2.59 2.60 2.66 2.63 2.36 2.25 2.02 1.81 1.60 1.52 1.49 1.61 1.86 1.65 1.70 1.67 1.62 1.59 1.61 1.78 1.74 1.53 1.55 1.26 0.83 0.53 0.36 0.30 0.34 0.39 0.38 0.30 0.32 0.43 0.53 0.58 0.61 0.68
1.82 2.25 2.63 2.58 2.50 2.43 2.62 2.87 3.04 3.02 2.65 2.13 1.90 1.76 1.57 1.50 1.58 1.70 1.69 1.58 1.61 1.63 1.59 1.60 1.73 1.55 1.34 1.44 1.39 1.23 0.74 0.50 0.38 0.37 0.52 0.55 0.49 0.50 0.51 0.52 0.59 0.66 0.74
1.52 1.85 1.97 1.76 1.78 1.75 1.84 2.08 2.23 2.49 2.39 2.11 1.85 1.71 1.62 1.57 1.53 1.57 1.60 1.58 1.55 1.55 1.54 1.63 1.61 1.49 1.32 1.30 1.41 1.51 1.18 0.82 0.57 0.35 0.35 0.44 0.53 0.54 0.50 0.52 0.51 0.54 0.61
1.05 1.03 1.03 1.10 1.18 1.27 1.39 1.63 1.91 2.18 2.15 2.06 1.99 1.75 1.56 1.41 1.34 1.33 1.33 1.35 1.38 1.38 1.43 1.36 1.34 1.42 1.42 1.32 1.37 1.41 1.36 1.25 1.05 0.57 0.34 0.38 0.49 0.53 0.52 0.49 0.49 0.54 0.58
0.88 0.90 0.90 1.00 1.14 1.25 1.36 1.50 1.69 2.04 2.02 1.85 1.72 1.56 1.48 1.39 1.31 1.24 1.23 1.20 1.19 1.19 1.22 1.22 1.35 1.36 1.37 1.33 1.29 1.28 1.36 1.35 1.24 0.96 0.57 0.49 0.50 0.48 0.52 0.54 0.56 0.64 0.74
0.76 0.86 0.91 0.93 1.01 1.07 1.13 1.21 1.27 1.43 1.50 1.41 1.35 1.30 1.23 1.14 1.10 1.12 1.11 1.08 1.07 1.11 1.18 1.17 1.16 1.17 1.19 1.21 1.16 1.13 1.18 1.16 1.14 1.15 0.90 0.78 0.72 0.65 0.67 0.68 0.69 0.73 0.71